Location: Tembleque
(39.6954°N, 3.5043°W)
Time: 10:48:19
(UTC+00:00)

Daily predictions for brighter satellites

Satellite Brightness Start Highest point End
(mag) Time Altitude Azimuth Time Altitude Azimuth Time Altitude Azimuth
SL-12 R/B(2) 4.3 17:16:32 10° SSW 17:24:07 72° ESE 17:33:16 10° NE
COSMO-SKYMED 1 4.3 17:23:40 10° ENE 17:25:19 12° E 17:26:58 10° ESE
BREEZE-M DEB (TANK) 2.6 17:25:39 10° W 17:27:46 37° NNW 17:31:29 10° NE
Cosmos 540 Rocket 4.1 17:26:39 10° N 17:31:14 32° ENE 17:35:46 10° SE
Cosmos 1812 3.1 17:31:34 10° SSE 17:33:58 24° E 17:36:22 10° NE
Cosmos 1975 Rocket 3.0 17:30:44 10° N 17:35:02 61° E 17:39:22 10° SSE
Cosmos 1763 Rocket 3.8 17:31:51 10° N 17:36:48 43° ENE 17:41:39 10° SE
CORIOLIS 4.1 17:31:49 10° SSE 17:37:11 79° ENE 17:42:32 10° N
Cosmos 1140 Rocket 4.3 17:33:29 10° SW 17:38:32 53° WNW 17:43:35 10° N
OAO 2 Rocket 4.0 17:35:32 10° WSW 17:40:21 50° S 17:45:17 10° ESE
SMAP 3.0 17:36:05 10° SSE 17:40:43 80° ENE 17:45:23 10° N
Cosmos 44 Rocket 3.2 17:36:43 10° SSW 17:41:25 70° ESE 17:46:16 10° NE
OAO 3 Rocket 3.9 17:37:17 10° WSW 17:41:44 44° S 17:46:07 10° E
IRS-1C 4.1 17:37:01 10° SSE 17:42:17 67° ENE 17:47:34 10° N
Cosmos 2058 3.8 17:41:40 10° NNE 17:44:57 24° ENE 17:48:12 10° SE
Cosmos 1943 Rocket 2.2 17:40:43 10° SSW 17:46:19 80° ESE 17:51:56 10° NNE
Okean 1 Rocket 4.4 17:46:02 10° SE 17:49:05 19° E 17:51:43 12° NE
CZ-2D R/B 4.4 17:46:31 10° SE 17:49:54 25° ENE 17:53:21 10° NNE
SKYMED 2 4.1 17:48:10 10° NNE 17:52:13 37° E 17:56:13 10° SSE
Landsat 7 3.7 17:48:33 10° SSE 17:53:10 77° ENE 17:57:50 10° N
Helios 1A Rocket 3.7 17:51:57 15° ENE 17:53:41 22° E 17:56:22 10° SSE
Cosmos 2278 Rocket 2.2 17:49:26 10° SSW 17:55:05 89° ESE 18:00:47 10° NNE
Cosmos 2082 Rocket 2.8 17:50:13 10° N 17:55:14 32° ENE 18:00:12 10° ESE
Aureole 3 Rocket 2.1 17:55:38 10° S 17:58:41 63° E 18:01:44 10° NNE
BREEZE-M DEB (TANK) 3.2 17:57:03 10° W 17:59:23 45° NNW 18:03:16 15° NE
BREEZE-M DEB (TANK) 3.9 17:58:30 10° W 18:00:37 28° NNW 18:04:09 12° NE
Cosmos 1513 Rocket 4.5 17:59:08 10° S 18:05:26 76° E 18:11:50 10° N
Cosmos 2369 Rocket 4.1 18:03:47 10° ESE 18:04:20 11° ESE 18:04:20 11° ESE
Cosmos 2251 Rocket 3.5 18:00:45 10° S 18:05:59 72° ESE 18:11:17 10° NNE
SL-16 R/B 4.4 18:03:17 10° N 18:08:29 28° WNW 18:13:39 10° WSW
YAOGAN 1 3.2 18:05:33 10° SE 18:09:16 31° ENE 18:13:02 10° N
Cosmos 371 Rocket 3.8 18:05:17 10° S 18:09:41 38° ESE 18:12:52 17° NE
Cosmos 304 Rocket 4.1 18:06:22 10° S 18:10:46 40° ESE 18:13:57 17° NE
SJ 16-02 1.4 18:08:11 10° S 18:12:21 52° ESE 18:15:42 15° NNE
Cosmos 841 Rocket 4.4 18:12:02 10° N 18:16:23 26° ENE 18:17:16 24° ENE
Resurs 1-3 3.9 18:17:13 10° SE 18:21:12 39° ENE 18:25:13 10° N
Nadezhda 4 Rocket 4.0 18:16:25 10° N 18:22:34 54° E 18:28:36 10° SSE
ARIANE 5 R/B 3.5 18:19:07 10° S 18:23:53 48° W 18:28:43 10° NNW
Cosmos 1862 3.1 18:21:09 10° N 18:24:41 49° E 18:28:12 10° SSE
ATLAS 2AS CENTAUR R/B 4.1 18:20:33 10° N 18:24:43 17° NNE 18:25:35 16° NE
Cosmos 1656 Rocket 4.1 18:21:16 10° S 18:26:21 39° ESE 18:28:32 28° ENE
COSMOS 2406 3.9 18:22:57 10° N 18:28:01 32° ENE 18:29:08 30° E
Cosmos 468 Rocket 3.8 18:24:59 10° NNW 18:30:10 69° ENE 18:35:17 10° SSE
Okean 2 Rocket 2.9 18:29:25 10° S 18:33:47 74° E 18:37:52 12° NNE
MOS 1 Rocket 3.6 18:31:28 10° S 18:35:41 62° W 18:40:06 10° NNW
Cosmos 1190 Rocket 4.2 18:31:37 10° SSW 18:36:53 71° WNW 18:42:11 10° NNE
Cosmos 1536 Rocket 3.4 18:32:28 10° N 18:36:54 73° E 18:41:16 10° SSE
USA 215 3.5 18:30:34 10° SE 18:37:05 72° SW 18:43:37 10° NW
Cosmos 676 Rocket 3.9 18:34:30 10° S 18:39:47 74° ESE 18:43:15 22° NNE
Cosmos 1428 Rocket 4.4 18:36:00 10° N 18:42:15 65° E 18:48:29 10° SSE
Cosmos 2344 4.4 18:36:22 10° NNW 18:43:55 40° NE 18:47:32 31° E
Cosmos 489 Rocket 4.4 18:37:58 10° NNW 18:44:10 61° ENE 18:50:16 10° SSE
ATLAS 5 CENTAUR R/B 4.1 18:40:10 10° WNW 18:44:19 28° WSW 18:49:12 10° S
Geosat FO 4.4 18:44:22 61° WSW 18:44:25 61° WSW 18:47:15 10° NNW
Cosmos 1602 4.3 18:41:49 10° NNW 18:44:45 43° W 18:47:39 10° SSW
Meteor 2-3 Rocket 3.9 18:42:43 10° N 18:48:14 48° ENE 18:49:59 36° ESE
RESURS DK-1 3.5 18:44:32 10° NW 18:48:19 41° WSW 18:52:04 10° S
BlueWalker 3 2.6 18:45:40 10° SSW 18:48:22 40° S 18:48:22 40° S
Cosmos 1954 Rocket 4.3 18:44:36 10° SSW 18:49:51 67° WNW 18:54:18 14° NNE
ISS -1.3 18:48:02 10° NW 18:50:04 15° NNW 18:50:07 15° NNW
SPOT 1/Viking Rocket 4.0 18:50:56 10° S 18:56:01 61° W 19:01:10 10° NNW
USA 281 4.0 19:02:00 31° NNE 19:02:00 31° NNE 19:06:27 10° N
COSMO-SKYMED 1 3.2 18:57:48 16° N 19:00:54 50° WNW 19:04:54 10° SSW
Cosmos 968 Rocket 3.8 18:56:38 10° S 19:00:38 47° SE 19:00:38 47° SE
Cosmos 1400 Rocket 4.1 19:00:07 10° SW 19:03:40 37° WNW 19:05:52 20° NNW
Cosmos 1634 Rocket 3.9 19:01:20 10° S 19:07:26 58° E 19:07:38 57° E
DELTA 2 R/B (1) 3.7 19:02:45 10° SW 19:08:08 55° SSE 19:08:21 54° SSE
Cosmos 2034 Rocket 4.4 19:13:58 10° SSW 19:20:03 61° W 19:26:15 10° N
OAO 3 Rocket 4.2 19:20:04 10° W 19:23:39 39° SW 19:23:39 39° SW
OAO 2 Rocket 4.3 19:19:54 10° W 19:24:28 37° SSW 19:24:28 37° SSW
BREEZE-M DEB (TANK) 4.1 19:21:50 10° WNW 19:37:18 82° NNE 19:37:19 82° NNE
Cosmos 2082 Rocket 3.6 19:34:13 10° NW 19:39:14 35° WSW 19:44:16 10° SSW
Cosmos 1092 Rocket 4.0 19:33:12 10° N 19:39:27 77° W 19:39:48 75° SW
Cosmos 2026 Rocket 4.4 19:39:48 10° NNW 19:45:47 60° W 19:51:49 10° S
Cosmos 2369 Rocket 3.5 19:43:23 10° SSW 19:46:11 31° SSW 19:46:11 31° SSW
SJ 16-02 4.1 19:48:32 10° W 19:50:48 14° WNW 19:52:17 12° NW
ATLAS 2AS CENTAUR R/B 4.2 20:10:18 10° NNW 20:13:01 26° NNW 20:13:01 26° NNW
